Location: Mount Kobau Star Party
(49.1167°N, 119.7333°W)
Time: 16:47:03
(UTC-07:00)

Amateur Radio Satellites - All Passes

Search period start: 18 October 2017 16:17
Search period end: 19 October 2017 16:17
Location: Mount Kobau Star Party, 49.1167°N, 119.7333°W

Satellite Date Start Highest point End Downlink Frequencies (MHz)
Time Altitude Azimuth
DOVE 4 18 Oct 16:26:40 16:30:21 31° 66° (ENE) 16:34:12 437.250
ITAMSAT 1 18 Oct 16:27:30 16:32:16 37° 263° (W) 16:37:06 435.822/435.867
XW-2C 18 Oct 16:43:21 16:44:38 11° 59° (ENE) 16:45:56 145.795 - 145.815
CUTE-I 18 Oct 16:43:53 16:47:21 18° 55° (NE) 16:50:49 437.470
SO-50 18 Oct 17:02:06 17:06:06 30° 243° (WSW) 17:10:08 436.795
AO-7 18 Oct 17:04:51 17:11:28 26° 269° (W) 17:18:07 .
BEESAT 2 18 Oct 17:08:22 17:09:49 12° 342° (NNW) 17:11:17 435.950
nSIGHT-1 18 Oct 17:12:34 17:15:28 32° 214° (SSW) 17:18:22 .
HO-68 18 Oct 17:13:25 17:18:39 22° 49° (NE) 17:23:54 435.675
AO-85 18 Oct 17:20:54 17:22:39 12° 343° (NNW) 17:24:26 145.980
MOZHAYETS 4 18 Oct 17:23:51 17:27:54 32° 295° (WNW) 17:31:56
XW-2F 18 Oct 17:27:47 17:31:04 29° 67° (ENE) 17:34:20 145.980 - 146.000
LilacSat-2 18 Oct 17:28:26 17:31:53 33° 69° (ENE) 17:35:21 437.200
KKS-1 18 Oct 17:28:43 17:32:28 25° 94° (E) 17:36:11 437.445
CUBESAT XI-V 18 Oct 17:29:07 17:33:43 80° 102° (ESE) 17:38:19 437.345
KAITUO 1B 18 Oct 17:29:46 17:32:49 24° 66° (ENE) 17:35:52 145.475/437.950
PCSat 18 Oct 17:32:12 17:37:37 67° 52° (NE) 17:43:00 145.827
ITUPSAT 1 18 Oct 17:33:52 17:38:09 33° 296° (WNW) 17:42:23 437.325
XW-2D 18 Oct 17:38:11 17:41:45 40° 70° (ENE) 17:45:19 145.860 - 145.880
ISS 18 Oct 17:40:27 17:43:08 23° 217° (SW) 17:45:48 437.550
NUDT-PHONESAT 18 Oct 17:46:56 17:50:19 35° 70° (ENE) 17:53:44 437.300
BEESAT 18 Oct 17:51:06 17:54:54 24° 299° (WNW) 17:58:41 436.000
XW-2B 18 Oct 17:51:24 17:55:07 54° 72° (ENE) 17:58:49 145.730 - 145.750
DOVE 4 18 Oct 18:04:23 18:08:04 30° 266° (W) 18:11:54 437.250
STARS 18 Oct 18:07:11 18:10:56 26° 94° (E) 18:14:40 437.465
UWE-3 18 Oct 18:08:54 18:10:11 11° 54° (NE) 18:11:28 435.000/436.395/437.385
XW-2C 18 Oct 18:14:26 18:18:14 81° 257° (WSW) 18:22:03 145.795 - 145.815
CUTE 1.7 + AOD 2 18 Oct 18:20:02 18:23:40 28° 66° (ENE) 18:27:17 437.475
CUTE-I 18 Oct 18:21:24 18:26:43 87° 258° (WSW) 18:32:05 437.470
SEEDS 18 Oct 18:31:20 18:34:41 24° 65° (ENE) 18:38:03 437.485
HO-68 18 Oct 18:58:16 19:05:26 83° 71° (ENE) 19:12:40 435.675
CUBEBUG 2 18 Oct 18:59:08 19:03:34 44° 69° (ENE) 19:08:06 437.445
AAUSAT CUBESAT 2 18 Oct 19:01:21 19:04:33 23° 64° (ENE) 19:07:47 437.432
XW-2F 18 Oct 19:01:58 19:05:10 26° 265° (W) 19:08:21 145.980 - 146.000
LilacSat-2 18 Oct 19:03:10 19:06:14 23° 267° (W) 19:09:18 437.200
KAITUO 1B 18 Oct 19:03:23 19:06:42 30° 264° (W) 19:10:02 145.475/437.950
AO-73 18 Oct 19:04:12 19:07:12 18° 60° (ENE) 19:10:12 145.935
AO-85 18 Oct 19:04:32 19:04:57 10° 8° (N) 19:05:23 145.980
KKS-1 18 Oct 19:04:57 19:09:09 40° 292° (WNW) 19:13:20 437.445
CUBESAT XI-V 18 Oct 19:07:50 19:10:30 16° 302° (WNW) 19:13:11 437.345
BEESAT 3 18 Oct 19:10:06 19:12:11 14° 23° (NNE) 19:14:16 437.485
STRAND 1 18 Oct 19:10:59 19:13:42 14° 87° (E) 19:16:24 437.568
YUBILEINY 18 Oct 19:11:45 19:18:28 23° 56° (NE) 19:25:10 435.215
XW-2D 18 Oct 19:13:23 19:16:06 19° 268° (W) 19:18:49 145.860 - 145.880
PCSat 18 Oct 19:16:20 19:20:33 23° 251° (WSW) 19:24:45 145.827
NUDT-PHONESAT 18 Oct 19:21:27 19:24:17 20° 267° (W) 19:27:08 437.300
ZACube-1 18 Oct 19:23:57 19:27:50 28° 65° (ENE) 19:31:44 437.345
XW-2B 18 Oct 19:27:32 19:29:37 14° 270° (W) 19:31:43 145.730 - 145.750
UWE-3 18 Oct 19:41:08 19:45:44 67° 73° (ENE) 19:50:23 435.000/436.395/437.385
STARS 18 Oct 19:43:15 19:47:22 39° 293° (WNW) 19:51:29 437.465
XW-2A 18 Oct 19:50:20 19:53:45 83° 257° (WSW) 19:57:11 145.665 - 145.685
CUTE 1.7 + AOD 2 18 Oct 19:55:36 19:59:25 32° 264° (W) 20:03:15 437.475
Oscar 11 18 Oct 20:03:58 20:08:00 40° 69° (ENE) 20:12:04 .
CUTE-I 18 Oct 20:04:51 20:07:33 14° 274° (W) 20:10:15 437.470
SEEDS 18 Oct 20:06:17 20:10:12 38° 263° (W) 20:14:07 437.485
BEESAT 2 18 Oct 20:25:51 20:28:44 18° 30° (NNE) 20:31:36 435.950
Max Valier Satellite 18 Oct 20:31:22 20:33:08 13° 60° (ENE) 20:34:54 145.860
AAUSAT CUBESAT 2 18 Oct 20:35:57 20:39:48 40° 262° (W) 20:43:42 437.432
CUBEBUG 2 18 Oct 20:36:30 20:40:22 25° 268° (W) 20:44:19 437.445
AO-73 18 Oct 20:38:23 20:42:55 69° 258° (WSW) 20:47:29 145.935
AO-85 18 Oct 20:43:33 20:46:56 22° 32° (NNE) 20:50:31 145.980
DELFI C3 18 Oct 20:46:38 20:49:50 25° 66° (ENE) 20:53:04 145.870
BEESAT 3 18 Oct 20:46:46 20:50:40 49° 45° (NE) 20:54:29 437.485
STRAND 1 18 Oct 20:48:24 20:53:36 89° 293° (WNW) 20:58:45 437.568
HO-68 18 Oct 20:48:37 20:54:00 22° 271° (W) 20:59:26 435.675
ZACube-1 18 Oct 20:59:39 21:03:57 39° 263° (W) 21:08:17 437.345
YUBILEINY 18 Oct 21:07:53 21:16:44 85° 81° (E) 21:25:35 435.215
UWE-3 18 Oct 21:19:37 21:22:38 17° 272° (W) 21:25:41 435.000/436.395/437.385
O/OREOS (USA 219) 18 Oct 21:20:24 21:24:47 47° 110° (ESE) 21:29:12 437.305
FO-29 18 Oct 21:35:45 21:42:17 53° 99° (E) 21:49:31 435.910
Oscar 11 18 Oct 21:40:45 21:44:16 24° 267° (W) 21:47:49 .
ESTCUBE 1 18 Oct 21:51:30 21:53:10 12° 55° (NE) 21:54:49 437.505/2401.250
EO-88 18 Oct 21:57:07 22:00:45 78° 77° (ENE) 22:04:25 145.990 - 145.960
Max Valier Satellite 18 Oct 22:02:46 22:06:28 67° 258° (WSW) 22:10:12 145.860
BEESAT 2 18 Oct 22:03:00 22:07:05 84° 53° (NE) 22:11:05 435.950
UNISAT 6 18 Oct 22:03:15 22:06:59 23° 92° (E) 22:10:38 437.425
TIGRISAT 18 Oct 22:18:20 22:22:25 30° 94° (E) 22:26:24 435.000
DELFI C3 18 Oct 22:20:58 22:24:29 32° 264° (W) 22:28:02 145.870
AO-85 18 Oct 22:23:25 22:27:53 88° 221° (SW) 22:32:41 145.980
BEESAT 3 18 Oct 22:24:51 22:27:56 22° 245° (WSW) 22:30:58 437.485
STRAND 1 18 Oct 22:28:56 22:32:05 16° 305° (NW) 22:35:13 437.568
LO-87 18 Oct 22:52:31 22:55:58 47° 72° (ENE) 22:59:28 145.935 - 145.965
SPROUT 18 Oct 22:53:29 22:55:14 12° 56° (ENE) 22:56:58 437.525
O/OREOS (USA 219) 18 Oct 23:00:34 23:04:25 26° 310° (NW) 23:08:19 437.305
YUBILEINY 18 Oct 23:05:52 23:12:29 25° 283° (WNW) 23:19:07 435.215
RS-15 18 Oct 23:13:19 23:19:19 15° 92° (E) 23:25:18 29.354- 29.394
FO-29 18 Oct 23:21:11 23:27:11 38° 297° (WNW) 23:33:48 435.910
VELOX 1 18 Oct 23:23:42 23:26:37 18° 59° (ENE) 23:29:32 145.980
ESTCUBE 1 18 Oct 23:24:43 23:29:12 78° 75° (ENE) 23:33:42 437.505/2401.250
UNISAT 6 18 Oct 23:39:27 23:43:54 46° 291° (WNW) 23:48:15 437.425
PRISM 18 Oct 23:40:26 23:44:34 90° 287° (WNW) 23:48:42 437.425
BEESAT 2 18 Oct 23:42:22 23:44:12 13° 250° (WSW) 23:46:00 435.950
QB50P2 18 Oct 23:46:43 23:49:03 14° 89° (E) 23:51:22 145.880/145.840
NANOSAT C BR1 18 Oct 23:52:00 23:54:01 13° 88° (E) 23:56:00 145.865
TIGRISAT 18 Oct 23:54:53 23:59:09 36° 293° (WNW) 00:03:20 435.000
AIST 2D 18 Oct 23:59:55 00:03:13 40° 98° (E) 00:06:30 435.315
DUCHIFAT 1 19 Oct 00:03:20 00:05:49 15° 89° (E) 00:08:16 145.980
AO-85 19 Oct 00:05:16 00:07:45 14° 249° (WSW) 00:10:20 145.980
SPROUT 19 Oct 00:26:09 00:30:26 86° 71° (ENE) 00:34:45 437.525
LO-87 19 Oct 00:27:33 00:29:38 15° 269° (W) 00:31:45 145.935 - 145.965
DX 1 19 Oct 00:34:41 00:38:07 24° 62° (ENE) 00:41:34 434.975-435.025
EO-79 19 Oct 00:56:35 01:00:51 63° 102° (ESE) 01:05:03 145.935-145.965
VELOX 1 19 Oct 00:58:17 01:02:37 64° 258° (WSW) 01:07:00 145.980
POLYITAN 1 19 Oct 01:00:50 01:05:07 70° 102° (ESE) 01:09:21 437.675
UKube-1 19 Oct 01:01:55 01:05:35 28° 64° (ENE) 01:09:16 .
ESTCUBE 1 19 Oct 01:04:21 01:06:34 13° 272° (W) 01:08:47 437.505/2401.250
RS-15 19 Oct 01:17:05 01:28:58 59° 116° (ESE) 01:40:49 29.354- 29.394
PRISM 19 Oct 01:17:36 01:19:12 12° 303° (WNW) 01:20:47 437.425
QB50P2 19 Oct 01:21:03 01:25:18 68° 287° (WNW) 01:29:30 145.880/145.840
NANOSAT C BR1 19 Oct 01:25:58 01:30:14 74° 286° (WNW) 01:34:27 145.865
50 SAT 19 Oct 01:32:00 01:35:14 79° 257° (WSW) 01:38:32 437.505
ITUPSAT 1 19 Oct 01:32:29 01:34:06 12° 52° (NE) 01:35:43 437.325
AIST 2D 19 Oct 01:33:52 01:36:07 16° 296° (WNW) 01:38:21 435.315
DUCHIFAT 1 19 Oct 01:37:42 01:41:54 63° 288° (WNW) 01:46:04 145.980
BEESAT 19 Oct 01:47:43 01:50:30 16° 56° (NE) 01:53:19 436.000
BUGSAT 1 19 Oct 01:51:47 01:55:57 52° 100° (E) 02:00:03 437.445
SPROUT 19 Oct 02:05:39 02:06:57 11° 274° (W) 02:08:15 437.525
DX 1 19 Oct 02:09:57 02:14:04 43° 261° (W) 02:18:14 434.975-435.025
Oscar 19 19 Oct 02:27:01 02:32:05 56° 101° (E) 02:37:06 437.125/150
EO-79 19 Oct 02:33:23 02:36:09 17° 300° (WNW) 02:38:54 145.935-145.965
UKube-1 19 Oct 02:37:34 02:41:30 35° 262° (W) 02:45:28 .
POLYITAN 1 19 Oct 02:37:49 02:40:23 16° 301° (WNW) 02:42:56 437.675
Gurwin Techsat 1B 19 Oct 02:45:48 02:51:04 58° 101° (E) 02:56:18 435.225
MOZHAYETS 4 19 Oct 02:51:58 02:56:28 52° 70° (ENE) 03:00:59
M-CUBED/EXP-1 PRIME 19 Oct 02:58:02 03:01:30 73° 109° (ESE) 03:05:10 437.505
CUBESAT XI-V 19 Oct 03:00:42 03:03:48 18° 60° (ENE) 03:06:55 437.345
NANOSAT C BR1 19 Oct 03:04:19 03:05:09 10° 305° (NW) 03:05:59 145.865
ITUPSAT 1 19 Oct 03:06:17 03:11:02 67° 72° (ENE) 03:15:50 437.325
AO-7 19 Oct 03:07:34 03:13:21 20° 88° (E) 03:19:07 .
BEESAT 19 Oct 03:22:50 03:27:38 87° 255° (WSW) 03:32:28 436.000
BUGSAT 1 19 Oct 03:27:54 03:30:57 20° 299° (WNW) 03:34:00 437.445
RS-15 19 Oct 03:29:29 03:41:42 60° 322° (NW) 03:53:45 29.354- 29.394
Oscar 19 19 Oct 04:06:59 04:11:04 25° 300° (WNW) 04:15:08 437.125/150
NO-84 19 Oct 04:20:36 04:24:38 40° 139° (SE) 04:28:34 435.350 FM
Gurwin Techsat 1B 19 Oct 04:26:24 04:30:40 25° 300° (WNW) 04:34:56 435.225
KKS-1 19 Oct 04:30:19 04:34:25 39° 67° (ENE) 04:38:34 437.445
MOZHAYETS 4 19 Oct 04:30:26 04:33:55 21° 269° (W) 04:37:26
M-CUBED/EXP-1 PRIME 19 Oct 04:34:11 04:35:32 12° 306° (NW) 04:36:55 437.505
ITAMSAT 1 19 Oct 04:35:27 04:40:38 56° 101° (ESE) 04:45:45 435.822/435.867
CUBESAT XI-V 19 Oct 04:36:06 04:40:42 67° 258° (WSW) 04:45:19 437.345
ITUPSAT 1 19 Oct 04:46:07 04:49:20 18° 270° (W) 04:52:33 437.325
AO-7 19 Oct 04:59:01 05:07:23 82° 109° (ESE) 05:15:42 .
BEESAT 19 Oct 05:04:15 05:06:07 12° 273° (W) 05:08:00 436.000
STARS 19 Oct 05:07:17 05:11:21 39° 67° (ENE) 05:15:27 437.465
RS-15 19 Oct 05:45:56 05:57:11 38° 354° (N) 06:08:07 29.354- 29.394
O/OREOS (USA 219) 19 Oct 05:47:14 05:51:14 28° 51° (NE) 05:55:12 437.305
DOVE 4 19 Oct 05:57:14 06:02:01 52° 100° (E) 06:07:01 437.250
NO-84 19 Oct 05:57:48 06:02:01 57° 337° (NNW) 06:06:03 435.350 FM
KKS-1 19 Oct 06:07:22 06:11:05 26° 266° (W) 06:14:51 437.445
ITAMSAT 1 19 Oct 06:15:31 06:19:46 25° 300° (WNW) 06:23:59 435.822/435.867
HO-68 19 Oct 06:24:19 06:26:55 12° 82° (E) 06:29:30 435.675
XW-2F 19 Oct 06:29:30 06:32:31 23° 94° (E) 06:35:30 145.980 - 146.000
STRAND 1 19 Oct 06:30:04 06:34:33 31° 63° (ENE) 06:39:04 437.568
KAITUO 1B 19 Oct 06:30:25 06:33:04 19° 92° (E) 06:35:43 145.475/437.950
LilacSat-2 19 Oct 06:31:30 06:34:46 27° 95° (E) 06:38:01 437.200
CUTE-I 19 Oct 06:34:33 06:39:07 27° 93° (E) 06:43:38 437.470
XW-2D 19 Oct 06:40:29 06:43:54 33° 96° (E) 06:47:17 145.860 - 145.880
STARS 19 Oct 06:44:07 06:47:47 26° 265° (W) 06:51:30 437.465
NUDT-PHONESAT 19 Oct 06:46:36 06:49:45 26° 95° (E) 06:52:52 437.300
AO-7 19 Oct 06:52:30 06:59:24 31° 311° (NW) 07:06:17 .
XW-2B 19 Oct 06:53:46 06:57:22 44° 99° (E) 07:00:57 145.730 - 145.750
XW-2C 19 Oct 07:16:51 07:20:37 85° 107° (ESE) 07:24:20 145.795 - 145.815
SO-50 19 Oct 07:19:46 07:23:43 32° 118° (ESE) 07:27:44 436.795
O/OREOS (USA 219) 19 Oct 07:26:27 07:30:49 44° 251° (WSW) 07:35:08 437.305
UWE-3 19 Oct 07:29:30 07:30:21 10° 84° (E) 07:31:12 435.000/436.395/437.385
DOVE 4 19 Oct 07:35:29 07:39:26 25° 297° (WNW) 07:43:32 437.250
CUTE 1.7 + AOD 2 19 Oct 07:35:52 07:39:38 31° 96° (E) 07:43:22 437.475
NO-84 19 Oct 07:36:08 07:39:58 34° 358° (N) 07:43:36 435.350 FM
SEEDS 19 Oct 07:45:48 07:49:16 25° 94° (E) 07:52:43 437.485
FO-29 19 Oct 07:53:55 07:58:30 31° 61° (ENE) 08:03:26 435.910
RS-15 19 Oct 08:01:27 08:13:12 49° 28° (NNE) 08:24:21 29.354- 29.394
XW-2F 19 Oct 08:03:22 08:06:41 31° 292° (WNW) 08:09:58 145.980 - 146.000
KAITUO 1B 19 Oct 08:03:46 08:07:12 37° 290° (WNW) 08:10:37 145.475/437.950
LilacSat-2 19 Oct 08:05:48 08:09:00 27° 293° (WNW) 08:12:11 437.200
STRAND 1 19 Oct 08:08:46 08:13:37 42° 262° (W) 08:18:31 437.568
HO-68 19 Oct 08:09:00 08:16:10 61° 103° (ESE) 08:23:16 435.675
AAUSAT CUBESAT 2 19 Oct 08:13:51 08:17:09 23° 93° (E) 08:20:26 437.432
CUTE-I 19 Oct 08:14:13 08:19:24 50° 292° (WNW) 08:24:34 437.470
XW-2D 19 Oct 08:14:57 08:17:56 23° 295° (WNW) 08:20:53 145.860 - 145.880
PCSat 19 Oct 08:18:47 08:23:07 25° 109° (ESE) 08:27:27 145.827
NUDT-PHONESAT 19 Oct 08:20:28 08:23:35 26° 293° (WNW) 08:26:38 437.300
YUBILEINY 19 Oct 08:20:44 08:26:35 21° 75° (ENE) 08:32:26 435.215
CUBEBUG 2 19 Oct 08:22:07 08:26:45 56° 100° (E) 08:31:13 437.445
AO-73 19 Oct 08:23:13 08:26:11 18° 89° (E) 08:29:05 145.935
XW-2B 19 Oct 08:28:41 08:31:15 18° 297° (WNW) 08:33:47 145.730 - 145.750
XW-2A 19 Oct 08:40:27 08:43:46 55° 100° (E) 08:47:02 145.665 - 145.685
ZACube-1 19 Oct 08:43:49 08:47:45 31° 95° (E) 08:51:34 437.345
AO-7 19 Oct 08:47:44 08:49:32 11° 336° (NNW) 08:51:19 .
XW-2C 19 Oct 08:53:18 08:54:11 11° 302° (WNW) 08:55:05 145.795 - 145.815
SO-50 19 Oct 08:59:48 09:04:05 43° 318° (NW) 09:08:25 436.795
PRISM 19 Oct 09:00:23 09:02:28 14° 58° (ENE) 09:04:35 437.425
UWE-3 19 Oct 09:02:59 09:07:35 84° 103° (ESE) 09:12:01 435.000/436.395/437.385
UNISAT 6 19 Oct 09:05:25 09:09:34 34° 66° (ENE) 09:13:48 437.425
CUTE 1.7 + AOD 2 19 Oct 09:11:45 09:15:25 29° 294° (WNW) 09:19:03 437.475
NO-84 19 Oct 09:14:02 09:17:58 50° 20° (NNE) 09:21:36 435.350 FM
TIGRISAT 19 Oct 09:20:19 09:24:41 42° 68° (ENE) 09:29:07 435.000
SEEDS 19 Oct 09:21:14 09:25:02 35° 292° (WNW) 09:28:49 437.485
Oscar 11 19 Oct 09:22:42 09:26:51 46° 99° (E) 09:30:58 .
FO-29 19 Oct 09:38:29 09:43:28 44° 263° (W) 09:48:52 435.910
AAUSAT CUBESAT 2 19 Oct 09:48:54 09:52:44 38° 291° (WNW) 09:56:33 437.432
DELFI C3 19 Oct 09:53:29 09:56:39 23° 93° (E) 09:59:49 145.870
HO-68 19 Oct 09:57:13 10:03:33 35° 303° (WNW) 10:09:51 435.675
CUTE-I 19 Oct 09:57:47 09:58:16 10° 313° (NW) 09:58:45 437.470
AO-73 19 Oct 09:58:28 10:02:48 55° 289° (WNW) 10:06:59 145.935
CUBEBUG 2 19 Oct 09:59:27 10:02:57 21° 299° (WNW) 10:06:24 437.445
PCSat 19 Oct 10:00:44 10:06:06 63° 309° (NW) 10:11:31 145.827
YUBILEINY 19 Oct 10:13:21 10:22:02 84° 97° (E) 10:30:49 435.215
XW-2A 19 Oct 10:14:39 10:16:03 12° 299° (WNW) 10:17:26 145.665 - 145.685
RS-15 19 Oct 10:14:45 10:26:47 79° 237° (WSW) 10:38:07 29.354- 29.394
ZACube-1 19 Oct 10:20:04 10:24:01 32° 294° (WNW) 10:27:51 437.345
EO-79 19 Oct 10:20:18 10:21:36 11° 55° (NE) 10:22:55 145.935-145.965
ISS 19 Oct 10:24:04 10:25:25 12° 136° (SE) 10:26:47 437.550
POLYITAN 1 19 Oct 10:24:11 10:25:56 12° 56° (ENE) 10:27:42 437.675
PRISM 19 Oct 10:33:10 10:37:12 74° 257° (WSW) 10:41:17 437.425
AIST 2D 19 Oct 10:37:53 10:40:55 28° 68° (ENE) 10:43:57 435.315
UWE-3 19 Oct 10:40:52 10:43:23 15° 303° (WNW) 10:45:51 435.000/436.395/437.385
UNISAT 6 19 Oct 10:42:03 10:46:16 33° 265° (W) 10:50:32 437.425
QB50P2 19 Oct 10:42:49 10:45:53 19° 61° (ENE) 10:48:56 145.880/145.840
SO-50 19 Oct 10:43:02 10:45:40 15° 341° (NNW) 10:48:19 436.795
NANOSAT C BR1 19 Oct 10:47:31 10:50:22 18° 60° (ENE) 10:53:15 145.865
NO-84 19 Oct 10:51:41 10:55:21 41° 221° (SW) 10:58:42 435.350 FM
EO-88 19 Oct 10:55:06 10:58:42 56° 101° (E) 11:02:14 145.990 - 145.960
TIGRISAT 19 Oct 10:57:35 11:01:30 27° 267° (W) 11:05:29 435.000
DUCHIFAT 1 19 Oct 10:58:39 11:01:44 20° 62° (ENE) 11:04:50 145.980
Oscar 11 19 Oct 10:59:24 11:02:43 22° 297° (WNW) 11:06:00 .
Max Valier Satellite 19 Oct 11:02:10 11:05:52 86° 284° (WNW) 11:09:31 145.860
ESTCUBE 1 19 Oct 11:14:51 11:16:39 12° 87° (E) 11:18:26 437.505/2401.250
DELFI C3 19 Oct 11:27:52 11:31:30 36° 291° (WNW) 11:35:07 145.870
nSIGHT-1 19 Oct 11:28:24 11:31:25 40° 149° (SSE) 11:34:26 .
PCSat 19 Oct 11:46:43 11:50:35 19° 332° (NNW) 11:54:27 145.827
LO-87 19 Oct 11:48:30 11:51:49 32° 97° (E) 11:55:07 145.935 - 145.965
EO-79 19 Oct 11:52:22 11:56:37 79° 76° (ENE) 12:00:55 145.935-145.965
POLYITAN 1 19 Oct 11:56:45 12:01:01 86° 79° (ENE) 12:05:21 437.675
ISS 19 Oct 11:58:09 12:01:20 58° 154° (SSE) 12:04:33 437.550
SPROUT 19 Oct 12:09:46 12:11:05 11° 86° (E) 12:12:24 437.525
Oscar 19 19 Oct 12:10:26 12:14:14 21° 58° (ENE) 12:18:02 437.125/150
AIST 2D 19 Oct 12:11:17 12:14:06 22° 266° (W) 12:16:55 435.315
YUBILEINY 19 Oct 12:12:56 12:20:00 27° 301° (WNW) 12:27:09 435.215
M-CUBED/EXP-1 PRIME 19 Oct 12:14:48 12:17:06 18° 58° (ENE) 12:19:21 437.505
QB50P2 19 Oct 12:17:07 12:21:18 54° 260° (W) 12:25:31 145.880/145.840
BEESAT 3 19 Oct 12:17:38 12:20:39 21° 115° (ESE) 12:23:41 437.485
NANOSAT C BR1 19 Oct 12:21:28 12:25:39 59° 259° (WSW) 12:29:54 145.865
AO-7 19 Oct 12:23:29 12:27:32 15° 32° (NNE) 12:31:35 .
SO-50 19 Oct 12:26:21 12:28:02 12° 6° (N) 12:29:44 436.795
RS-15 19 Oct 12:28:44 12:37:11 24° 261° (W) 12:45:22 29.354- 29.394
EO-88 19 Oct 12:29:59 12:31:55 14° 299° (WNW) 12:33:52 145.990 - 145.960
Gurwin Techsat 1B 19 Oct 12:32:43 12:36:52 24° 59° (ENE) 12:41:02 435.225
DUCHIFAT 1 19 Oct 12:32:56 12:37:03 51° 260° (W) 12:41:14 145.980
VELOX 1 19 Oct 12:44:45 12:47:49 18° 91° (E) 12:50:52 145.980
BUGSAT 1 19 Oct 12:44:49 12:48:57 62° 72° (ENE) 12:53:08 437.445
ESTCUBE 1 19 Oct 12:49:34 12:54:04 85° 285° (WNW) 12:58:33 437.505/2401.250
nSIGHT-1 19 Oct 13:04:28 13:07:39 62° 349° (N) 13:10:48 .
LO-87 19 Oct 13:22:14 13:25:04 22° 295° (WNW) 13:27:53 145.935 - 145.965
EO-79 19 Oct 13:31:08 13:32:56 12° 272° (W) 13:34:45 145.935-145.965
PCSat 19 Oct 13:34:28 13:36:14 11° 358° (N) 13:38:02 145.827
ISS 19 Oct 13:34:40 13:37:53 55° 353° (N) 13:41:06 437.550
BEESAT 2 19 Oct 13:34:52 13:38:35 37° 120° (ESE) 13:42:21 435.950
POLYITAN 1 19 Oct 13:36:06 13:37:26 11° 273° (W) 13:38:45 437.675
SPROUT 19 Oct 13:43:17 13:47:36 86° 290° (WNW) 13:51:53 437.525
Oscar 19 19 Oct 13:47:57 13:53:05 68° 257° (WSW) 13:58:15 437.125/150
M-CUBED/EXP-1 PRIME 19 Oct 13:48:14 13:51:21 36° 255° (WSW) 13:54:26 437.505
BEESAT 3 19 Oct 13:53:57 13:57:53 53° 314° (NW) 14:01:51 437.485
DX 1 19 Oct 13:54:03 13:57:34 23° 94° (E) 14:01:04 434.975-435.025
SO-50 19 Oct 14:06:29 14:10:08 23° 31° (NNE) 14:13:49 436.795
AO-7 19 Oct 14:10:35 14:18:14 44° 56° (NE) 14:25:54 .
Gurwin Techsat 1B 19 Oct 14:11:11 14:16:25 62° 258° (WSW) 14:21:43 435.225
50 SAT 19 Oct 14:19:05 14:22:17 47° 100° (E) 14:25:29 437.505
ITAMSAT 1 19 Oct 14:19:47 14:23:44 23° 58° (ENE) 14:27:42 435.822/435.867
UKube-1 19 Oct 14:20:07 14:23:50 27° 95° (E) 14:27:30 .
VELOX 1 19 Oct 14:20:16 14:24:37 56° 289° (WNW) 14:28:57 145.980
AO-85 19 Oct 14:21:49 14:25:41 70° 126° (SE) 14:29:42 145.980
BUGSAT 1 19 Oct 14:22:12 14:24:42 15° 271° (W) 14:27:15 437.445
ESTCUBE 1 19 Oct 14:28:11 14:30:10 13° 304° (NW) 14:32:09 437.505/2401.250
nSIGHT-1 19 Oct 14:41:00 14:44:10 56° 8° (N) 14:47:19 .
ITUPSAT 1 19 Oct 15:04:30 15:06:28 12° 87° (E) 15:08:26 437.325
ISS 19 Oct 15:11:21 15:14:36 66° 13° (NNE) 15:17:51 437.550
BEESAT 2 19 Oct 15:12:41 15:16:22 33° 320° (NW) 15:20:04 435.950
PCSat 19 Oct 15:18:26 15:22:00 17° 25° (NNE) 15:25:33 145.827
BEESAT 19 Oct 15:19:42 15:22:55 18° 90° (E) 15:26:05 436.000
SPROUT 19 Oct 15:21:03 15:22:49 12° 304° (WNW) 15:24:35 437.525
DX 1 19 Oct 15:29:47 15:33:55 42° 292° (WNW) 15:38:03 434.975-435.025
DOVE 4 19 Oct 15:33:14 15:34:16 11° 54° (NE) 15:35:19 437.250
BEESAT 3 19 Oct 15:34:02 15:36:18 14° 335° (NNW) 15:38:33 437.485
SO-50 19 Oct 15:46:33 15:51:10 87° 227° (SW) 15:55:49 436.795
50 SAT 19 Oct 15:52:34 15:54:15 13° 298° (WNW) 15:55:56 437.505
UKube-1 19 Oct 15:55:57 15:59:54 36° 293° (WNW) 16:03:50 .
ITAMSAT 1 19 Oct 15:57:37 16:02:45 65° 257° (WSW) 16:07:58 435.822/435.867
AO-85 19 Oct 16:03:25 16:06:31 21° 328° (NNW) 16:09:44 145.980
